| time (UTC) | temp F | wind direction | speed MPH | gust MPH | rain 1hr in | rain 24hr in | rain mn in | humidity % | barometer mb |
| 20260901205340 | 69 | 150 | 0.0 | 8.0 | 0.00 | 0.00 | 0.00 | 68 | 1007.9 |
| 20260901204841 | 69 | 142 | 0.0 | 8.0 | 0.00 | 0.00 | 0.00 | 69 | 1008.0 |
| 20260901204341 | 68 | 148 | 1.0 | 8.0 | 0.00 | 0.00 | 0.00 | 69 | 1008.2 |
| 20260901203841 | 68 | 126 | 1.0 | 8.0 | 0.00 | 0.00 | 0.00 | 70 | 1008.1 |
| 20260901203341 | 68 | 121 | 0.0 | 6.0 | 0.00 | 0.00 | 0.00 | 69 | 1008.3 |
| 20260901203134 | 68 | 141 | 0.0 | 6.0 | 0.00 | 0.00 | 0.00 | 70 | 1008.2 |
| 20260901202340 | 68 | 152 | 0.0 | 7.0 | 0.00 | 0.00 | 0.00 | 69 | 1008.3 |
| 20260901201840 | 68 | 155 | 1.0 | 8.0 | 0.00 | 0.00 | 0.00 | 69 | 1008.2 |
| 20260901201341 | 68 | 139 | 0.0 | 8.0 | 0.00 | 0.00 | 0.00 | 70 | 1008.3 |
| 20260901200841 | 68 | 128 | 0.0 | 3.0 | 0.00 | 0.00 | 0.00 | 69 | 1008.3 |
| 20260901200341 | 68 | 165 | 0.0 | 4.0 | 0.00 | 0.00 | 0.00 | 70 | 1008.4 |
| 20260901195840 | 67 | 151 | 0.0 | 6.0 | 0.00 | 0.00 | 0.00 | 71 | 1008.4 |
| 20260901195341 | 68 | 162 | 1.0 | 6.0 | 0.00 | 0.00 | 0.00 | 72 | 1008.6 |
| 20260901195148 | 67 | 147 | 0.0 | 6.0 | 0.00 | 0.00 | 0.00 | 73 | 1008.5 |
| 20260901194340 | 67 | 145 | 0.0 | 6.0 | 0.00 | 0.00 | 0.00 | 75 | 1008.2 |
| 20260901194131 | 66 | 142 | 0.0 | 4.0 | 0.00 | 0.00 | 0.00 | 75 | 1008.3 |
| 20260901193630 | 66 | 128 | 0.0 | 4.0 | 0.00 | 0.00 | 0.00 | 74 | 1008.3 |
| 20260901192840 | 66 | 151 | 0.0 | 8.0 | 0.00 | 0.00 | 0.00 | 75 | 1008.5 |
| 20260901192341 | 65 | 129 | 0.0 | 8.0 | 0.00 | 0.00 | 0.00 | 75 | 1008.3 |
| 20260901191840 | 65 | 131 | 0.0 | 2.0 | 0.00 | 0.00 | 0.00 | 75 | 1008.7 |
| 20260901191341 | 65 | 128 | 0.0 | 10.0 | 0.00 | 0.00 | 0.00 | 75 | 1008.4 |
| 20260901190841 | 65 | 144 | 1.0 | 10.0 | 0.00 | 0.00 | 0.00 | 77 | 1008.6 |
| 20260901190340 | 65 | 153 | 0.0 | 4.0 | 0.00 | 0.00 | 0.00 | 76 | 1008.5 |
| 20260901185842 | 64 | 144 | 1.0 | 4.0 | 0.00 | 0.00 | 0.00 | 78 | 1008.6 |
| 20260901185641 | 64 | 146 | 0.0 | 1.0 | 0.00 | 0.00 | 0.00 | 79 | 1008.8 |
| 20260901184840 | 64 | 146 | 0.0 | 3.0 | 0.00 | 0.00 | 0.00 | 80 | 1008.6 |
| 20260901184341 | 63 | 147 | 0.0 | 11.0 | 0.00 | 0.00 | 0.00 | 81 | 1008.7 |
| 20260901183841 | 63 | 147 | 1.0 | 11.0 | 0.00 | 0.00 | 0.00 | 81 | 1008.9 |
| 20260901183345 | 63 | 147 | 0.0 | 7.0 | 0.00 | 0.00 | 0.00 | 81 | 1008.7 |
| 20260901183130 | 63 | 151 | 0.0 | 2.0 | 0.00 | 0.00 | 0.00 | 81 | 1008.6 |
| 20260901182342 | 63 | 137 | 0.0 | 1.0 | 0.00 | 0.00 | 0.00 | 81 | 1008.8 |
| 20260901181846 | 62 | 150 | 0.0 | 1.0 | 0.00 | 0.00 | 0.00 | 82 | 1008.6 |
| 20260901181342 | 62 | 154 | 0.0 | 2.0 | 0.00 | 0.00 | 0.00 | 83 | 1008.6 |
| 20260901180840 | 62 | 143 | 1.0 | 10.0 | 0.00 | 0.00 | 0.00 | 83 | 1008.5 |
| 20260901180354 | 62 | 147 | 0.0 | 18.0 | 0.00 | 0.00 | 0.00 | 85 | 1008.4 |
| 20260901175839 | 61 | 133 | 2.0 | 18.0 | 0.00 | 0.00 | 0.00 | 85 | 1008.8 |
| 20260901175352 | 61 | 152 | 0.0 | 3.0 | 0.00 | 0.00 | 0.00 | 86 | 1008.8 |
| 20260901174853 | 61 | 150 | 0.0 | 3.0 | 0.00 | 0.00 | 0.00 | 86 | 1008.6 |
| 20260901174341 | 61 | 145 | 0.0 | 2.0 | 0.00 | 0.00 | 0.00 | 86 | 1008.6 |
| 20260901173840 | 61 | 132 | 0.0 | 10.0 | 0.00 | 0.00 | 0.00 | 86 | 1008.6 |
| 20260901173341 | 61 | 139 | 2.0 | 10.0 | 0.00 | 0.00 | 0.00 | 87 | 1008.2 |
| 20260901172841 | 60 | 146 | 0.0 | 11.0 | 0.00 | 0.00 | 0.00 | 87 | 1008.4 |
| 20260901172341 | 60 | 149 | 1.0 | 13.0 | 0.00 | 0.00 | 0.00 | 88 | 1008.5 |
| 20260901171840 | 60 | 141 | 1.0 | 13.0 | 0.00 | 0.00 | 0.00 | 87 | 1008.4 |
| 20260901171341 | 60 | 150 | 2.0 | 4.0 | 0.00 | 0.00 | 0.00 | 87 | 1008.6 |
| 20260901170852 | 60 | 145 | 0.0 | 4.0 | 0.00 | 0.00 | 0.00 | 88 | 1008.5 |
| 20260901170341 | 60 | 144 | 0.0 | 4.0 | 0.00 | 0.00 | 0.00 | 88 | 1008.3 |
| 20260901165839 | 60 | 140 | 0.0 | 10.0 | 0.00 | 0.00 | 0.00 | 88 | 1008.5 |
| 20260901165340 | 60 | 131 | 1.0 | 10.0 | 0.00 | 0.00 | 0.00 | 89 | 1008.4 |
| 20260901164841 | 60 | 131 | 0.0 | 6.0 | 0.00 | 0.00 | 0.00 | 89 | 1008.2 |
| 20260901164337 | 60 | 145 | 0.0 | 7.0 | 0.00 | 0.00 | 0.00 | 89 | 1008.4 |
| 20260901163836 | 60 | 154 | 0.0 | 10.0 | 0.00 | 0.00 | 0.00 | 89 | 1008.4 |
| 20260901163337 | 60 | 147 | 0.0 | 10.0 | 0.00 | 0.00 | 0.00 | 89 | 1008.5 |
| 20260901163117 | 59 | 134 | 1.0 | 9.0 | 0.00 | 0.00 | 0.00 | 89 | 1008.4 |
| 20260901162336 | 59 | 148 | 1.0 | 7.0 | 0.00 | 0.00 | 0.00 | 89 | 1008.3 |
| 20260901161836 | 59 | 126 | 1.0 | 32.0 | 0.00 | 0.00 | 0.00 | 90 | 1008.6 |
| 20260901161337 | 59 | 151 | 1.0 | 32.0 | 0.00 | 0.00 | 0.00 | 90 | 1008.5 |
| 20260901160836 | 59 | 150 | 1.0 | 14.0 | 0.00 | 0.00 | 0.00 | 90 | 1008.5 |
| 20260901160337 | 59 | 154 | 1.0 | 11.0 | 0.00 | 0.00 | 0.00 | 90 | 1008.6 |
| 20260901155837 | 59 | 149 | 1.0 | 7.0 | 0.00 | 0.00 | 0.00 | 90 | 1008.5 |
| 20260901155427 | 58 | 134 | 0.0 | 0.0 | 0.00 | 0.00 | 0.00 | 91 | 1008.6 |
| 20260901155406 | 59 | 123 | 0.0 | 7.0 | 0.00 | 0.00 | 0.00 | 90 | 1008.5 |
| 20260901154337 | 58 | 125 | 0.0 | 6.0 | 0.00 | 0.00 | 0.00 | 92 | 1008.7 |
| 20260901153836 | 58 | 143 | 0.0 | 7.0 | 0.00 | 0.00 | 0.00 | 92 | 1008.4 |
| 20260901153642 | 58 | 133 | 1.0 | 7.0 | 0.00 | 0.00 | 0.00 | 93 | 1008.8 |
| 20260901152836 | 58 | 143 | 1.0 | 7.0 | 0.00 | 0.00 | 0.00 | 93 | 1008.7 |
| 20260901152337 | 58 | 137 | 0.0 | 7.0 | 0.00 | 0.00 | 0.00 | 94 | 1008.8 |
| 20260901151838 | 57 | 145 | 0.0 | 9.0 | 0.00 | 0.00 | 0.00 | 94 | 1008.6 |
| 20260901151338 | 57 | 112 | 0.0 | 9.0 | 0.00 | 0.00 | 0.00 | 95 | 1008.8 |
| 20260901150836 | 57 | 149 | 0.0 | 15.0 | 0.00 | 0.00 | 0.00 | 95 | 1008.8 |
| 20260901150632 | 56 | 150 | 1.0 | 15.0 | 0.00 | 0.00 | 0.00 | 95 | 1008.6 |
| 20260901145839 | 56 | 154 | 0.0 | 0.0 | 0.00 | 0.00 | 0.00 | 96 | 1008.7 |
| 20260901145627 | 56 | 138 | 0.0 | 0.0 | 0.00 | 0.00 | 0.00 | 96 | 1008.6 |
| 20260901144839 | 55 | 128 | 0.0 | 0.0 | 0.00 | 0.00 | 0.00 | 96 | 1008.4 |
| 20260901144338 | 54 | 127 | 0.0 | 0.0 | 0.00 | 0.00 | 0.00 | 96 | 1008.5 |
| 20260901144127 | 54 | 125 | 0.0 | 2.0 | 0.00 | 0.00 | 0.00 | 96 | 1008.3 |
| 20260901143643 | 54 | 125 | 0.0 | 2.0 | 0.00 | 0.00 | 0.00 | 96 | 1008.4 |
| 20260901142839 | 54 | 127 | 0.0 | 6.0 | 0.00 | 0.00 | 0.00 | 97 | 1008.4 |
| 20260901142337 | 53 | 127 | 1.0 | 4.0 | 0.00 | 0.00 | 0.00 | 97 | 1008.4 |
| 20260901141837 | 53 | 127 | 0.0 | 0.0 | 0.00 | 0.00 | 0.00 | 97 | 1008.4 |
| 20260901141337 | 53 | 127 | 0.0 | 0.0 | 0.00 | 0.00 | 0.00 | 97 | 1008.3 |
| 20260901140838 | 53 | 126 | 0.0 | 0.0 | 0.00 | 0.00 | 0.00 | 97 | 1008.3 |
| 20260901140338 | 53 | 126 | 0.0 | 4.0 | 0.00 | 0.00 | 0.00 | 97 | 1008.2 |
| 20260901135838 | 53 | 125 | 0.0 | 4.0 | 0.00 | 0.00 | 0.00 | 97 | 1008.1 |
| 20260901135337 | 53 | 122 | 0.0 | 0.0 | 0.00 | 0.00 | 0.00 | 97 | 1008.1 |
| 20260901134837 | 53 | 146 | 0.0 | 0.0 | 0.00 | 0.00 | 0.00 | 97 | 1008.1 |
| 20260901134339 | 53 | 146 | 0.0 | 0.0 | 0.00 | 0.00 | 0.00 | 97 | 1008.0 |
| 20260901134119 | 53 | 146 | 0.0 | 0.0 | 0.00 | 0.00 | 0.00 | 97 | 1007.9 |
| 20260901133337 | 53 | 146 | 0.0 | 0.0 | 0.00 | 0.00 | 0.00 | 97 | 1008.0 |
| 20260901132836 | 53 | 145 | 0.0 | 0.0 | 0.00 | 0.00 | 0.00 | 97 | 1007.9 |
| 20260901132337 | 53 | 145 | 0.0 | 0.0 | 0.00 | 0.00 | 0.00 | 97 | 1007.9 |
| 20260901131836 | 53 | 145 | 0.0 | 0.0 | 0.00 | 0.00 | 0.00 | 97 | 1008.1 |
| 20260901131338 | 53 | 146 | 0.0 | 0.0 | 0.00 | 0.00 | 0.00 | 97 | 1007.9 |
| 20260901130836 | 53 | 146 | 0.0 | 0.0 | 0.00 | 0.00 | 0.00 | 97 | 1007.9 |
| 20260901130342 | 52 | 146 | 0.0 | 0.0 | 0.00 | 0.00 | 0.00 | 97 | 1007.9 |
| 20260901125842 | 52 | 145 | 0.0 | 0.0 | 0.00 | 0.00 | 0.00 | 97 | 1008.0 |
| 20260901125340 | 52 | 145 | 0.0 | 0.0 | 0.00 | 0.00 | 0.00 | 97 | 1007.7 |
| 20260901124836 | 52 | 145 | 0.0 | 0.0 | 0.00 | 0.00 | 0.00 | 97 | 1007.8 |
| 20260901124337 | 52 | 145 | 0.0 | 6.0 | 0.00 | 0.00 | 0.00 | 97 | 1007.7 |
| 20260901124140 | 52 | 145 | 1.0 | 4.0 | 0.00 | 0.00 | 0.00 | 97 | 1007.7 |
| 20260901123337 | 52 | 145 | 0.0 | 0.0 | 0.00 | 0.00 | 0.00 | 97 | 1007.7 |
| 20260901122840 | 52 | 145 | 0.0 | 0.0 | 0.00 | 0.00 | 0.00 | 97 | 1007.6 |
| 20260901122339 | 52 | 146 | 0.0 | 0.0 | 0.00 | 0.00 | 0.00 | 97 | 1007.7 |
| 20260901121837 | 52 | 145 | 0.0 | 1.0 | 0.00 | 0.00 | 0.00 | 97 | 1007.4 |
| 20260901121339 | 53 | 145 | 0.0 | 1.0 | 0.00 | 0.00 | 0.00 | 96 | 1007.5 |
| 20260901120837 | 53 | 146 | 0.0 | 0.0 | 0.00 | 0.00 | 0.00 | 97 | 1007.3 |
| 20260901120337 | 52 | 146 | 0.0 | 0.0 | 0.00 | 0.00 | 0.00 | 97 | 1007.5 |
| 20260901115845 | 53 | 146 | 0.0 | 0.0 | 0.00 | 0.00 | 0.00 | 97 | 1007.5 |
| 20260901115338 | 53 | 146 | 0.0 | 0.0 | 0.00 | 0.00 | 0.00 | 97 | 1007.6 |
| 20260901114837 | 52 | 146 | 0.0 | 0.0 | 0.00 | 0.00 | 0.00 | 97 | 1007.6 |
| 20260901114337 | 52 | 146 | 0.0 | 0.0 | 0.00 | 0.00 | 0.00 | 97 | 1007.4 |
| 20260901113836 | 52 | 146 | 0.0 | 0.0 | 0.00 | 0.00 | 0.00 | 96 | 1007.4 |
| 20260901113337 | 52 | 146 | 0.0 | 0.0 | 0.00 | 0.00 | 0.00 | 96 | 1007.7 |
| 20260901112836 | 52 | 145 | 0.0 | 0.0 | 0.00 | 0.00 | 0.00 | 96 | 1007.6 |
| 20260901112337 | 52 | 145 | 0.0 | 0.0 | 0.00 | 0.00 | 0.00 | 96 | 1007.5 |
| 20260901111836 | 52 | 145 | 0.0 | 0.0 | 0.00 | 0.00 | 0.00 | 96 | 1007.3 |
| 20260901111337 | 53 | 145 | 0.0 | 0.0 | 0.00 | 0.00 | 0.00 | 96 | 1007.5 |
| 20260901110836 | 53 | 145 | 0.0 | 0.0 | 0.00 | 0.00 | 0.00 | 96 | 1007.5 |
| 20260901110337 | 53 | 146 | 0.0 | 0.0 | 0.00 | 0.00 | 0.00 | 96 | 1007.5 |
| 20260901110209 | 53 | 146 | 0.0 | 0.0 | 0.00 | 0.00 | 0.00 | 96 | 1007.5 |
| 20260901105337 | 53 | 146 | 0.0 | 0.0 | 0.00 | 0.00 | 0.00 | 96 | 1007.4 |
| 20260901104836 | 53 | 146 | 0.0 | 0.0 | 0.00 | 0.00 | 0.00 | 96 | 1007.4 |
| 20260901104337 | 53 | 146 | 0.0 | 0.0 | 0.00 | 0.00 | 0.00 | 95 | 1007.5 |
| 20260901103836 | 53 | 146 | 0.0 | 0.0 | 0.00 | 0.00 | 0.00 | 95 | 1007.3 |
| 20260901103350 | 53 | 146 | 0.0 | 0.0 | 0.00 | 0.00 | 0.00 | 95 | 1007.7 |
| 20260901102836 | 53 | 146 | 0.0 | 0.0 | 0.00 | 0.00 | 0.00 | 95 | 1007.6 |
| 20260901102337 | 53 | 146 | 0.0 | 0.0 | 0.00 | 0.00 | 0.00 | 95 | 1007.8 |
| 20260901101836 | 53 | 145 | 0.0 | 0.0 | 0.00 | 0.00 | 0.00 | 95 | 1007.7 |
| 20260901101338 | 53 | 145 | 0.0 | 0.0 | 0.00 | 0.00 | 0.00 | 95 | 1007.3 |
| 20260901100851 | 53 | 145 | 0.0 | 0.0 | 0.00 | 0.00 | 0.00 | 95 | 1007.5 |
| 20260901100338 | 53 | 146 | 0.0 | 0.0 | 0.00 | 0.00 | 0.00 | 94 | 1007.6 |
| 20260901095836 | 54 | 145 | 0.0 | 0.0 | 0.00 | 0.00 | 0.00 | 94 | 1007.3 |
| 20260901095337 | 54 | 145 | 0.0 | 0.0 | 0.00 | 0.00 | 0.00 | 94 | 1007.4 |
| 20260901094836 | 54 | 145 | 0.0 | 0.0 | 0.00 | 0.00 | 0.00 | 94 | 1007.6 |
| 20260901094337 | 54 | 145 | 0.0 | 0.0 | 0.00 | 0.00 | 0.00 | 94 | 1007.2 |
| 20260901093836 | 54 | 145 | 0.0 | 0.0 | 0.00 | 0.00 | 0.00 | 94 | 1007.4 |
| 20260901093350 | 54 | 145 | 0.0 | 0.0 | 0.00 | 0.00 | 0.00 | 94 | 1007.4 |
| 20260901092836 | 54 | 146 | 0.0 | 0.0 | 0.00 | 0.00 | 0.00 | 94 | 1007.5 |
| 20260901092337 | 54 | 146 | 0.0 | 0.0 | 0.00 | 0.00 | 0.00 | 94 | 1007.5 |
| 20260901091836 | 54 | 146 | 0.0 | 0.0 | 0.00 | 0.00 | 0.00 | 93 | 1007.5 |
| 20260901091337 | 54 | 146 | 0.0 | 0.0 | 0.00 | 0.00 | 0.00 | 93 | 1007.4 |
| 20260901090836 | 54 | 146 | 0.0 | 0.0 | 0.00 | 0.00 | 0.00 | 93 | 1007.4 |
| 20260901090337 | 54 | 146 | 0.0 | 0.0 | 0.00 | 0.00 | 0.00 | 93 | 1007.3 |
| 20260901085835 | 55 | 146 | 0.0 | 0.0 | 0.00 | 0.00 | 0.00 | 93 | 1007.4 |
| 20260901085337 | 55 | 146 | 0.0 | 0.0 | 0.00 | 0.00 | 0.00 | 93 | 1007.4 |
| 20260901084836 | 55 | 146 | 0.0 | 0.0 | 0.00 | 0.00 | 0.00 | 92 | 1007.4 |
| 20260901084337 | 55 | 146 | 0.0 | 0.0 | 0.00 | 0.00 | 0.00 | 92 | 1007.3 |
| 20260901083836 | 55 | 146 | 0.0 | 0.0 | 0.00 | 0.00 | 0.00 | 92 | 1007.3 |
| 20260901083337 | 55 | 146 | 0.0 | 0.0 | 0.00 | 0.00 | 0.00 | 92 | 1007.4 |
| 20260901083128 | 55 | 146 | 0.0 | 0.0 | 0.00 | 0.00 | 0.00 | 92 | 1007.1 |
| 20260901082337 | 55 | 145 | 0.0 | 0.0 | 0.00 | 0.00 | 0.00 | 92 | 1007.3 |
| 20260901081836 | 55 | 146 | 0.0 | 0.0 | 0.00 | 0.00 | 0.00 | 91 | 1007.2 |
| 20260901081337 | 56 | 146 | 0.0 | 0.0 | 0.00 | 0.00 | 0.00 | 91 | 1007.3 |
| 20260901080836 | 55 | 146 | 0.0 | 0.0 | 0.00 | 0.00 | 0.00 | 91 | 1007.3 |
| 20260901080337 | 56 | 146 | 0.0 | 0.0 | 0.00 | 0.00 | 0.00 | 91 | 1007.4 |
| 20260901075836 | 56 | 146 | 0.0 | 0.0 | 0.00 | 0.00 | 0.00 | 90 | 1007.5 |
| 20260901075337 | 56 | 146 | 0.0 | 0.0 | 0.00 | 0.00 | 0.00 | 90 | 1007.4 |
| 20260901074841 | 56 | 146 | 0.0 | 0.0 | 0.00 | 0.00 | 0.00 | 90 | 1007.2 |
| 20260901074341 | 56 | 146 | 0.0 | 0.0 | 0.00 | 0.00 | 0.00 | 89 | 1007.3 |
| 20260901073839 | 56 | 146 | 0.0 | 0.0 | 0.00 | 0.00 | 0.00 | 89 | 1007.1 |
| 20260901073418 | 56 | 146 | 0.0 | 0.0 | 0.00 | 0.00 | 0.00 | 89 | 1007.1 |
| 20260901072618 | 56 | 146 | 0.0 | 0.0 | 0.00 | 0.00 | 0.00 | 89 | 1007.0 |
| 20260901071838 | 56 | 146 | 0.0 | 0.0 | 0.00 | 0.00 | 0.00 | 89 | 1007.1 |
| 20260901071338 | 56 | 146 | 0.0 | 0.0 | 0.00 | 0.00 | 0.00 | 89 | 1007.3 |
| 20260901070835 | 56 | 146 | 0.0 | 0.0 | 0.00 | 0.00 | 0.00 | 88 | 1007.2 |
| 20260901070337 | 56 | 146 | 0.0 | 0.0 | 0.00 | 0.00 | 0.00 | 88 | 1007.1 |
| 20260901065837 | 56 | 146 | 0.0 | 0.0 | 0.00 | 0.00 | 0.00 | 89 | 1007.2 |
| 20260901065339 | 57 | 146 | 0.0 | 0.0 | 0.00 | 0.00 | 0.00 | 89 | 1007.2 |
| 20260901064836 | 57 | 146 | 0.0 | 0.0 | 0.00 | 0.00 | 0.00 | 88 | 1007.4 |
| 20260901064340 | 57 | 146 | 0.0 | 0.0 | 0.00 | 0.00 | 0.00 | 88 | 1007.3 |
| 20260901063839 | 57 | 146 | 0.0 | 0.0 | 0.00 | 0.00 | 0.00 | 87 | 1007.0 |
| 20260901063337 | 57 | 146 | 0.0 | 0.0 | 0.00 | 0.00 | 0.00 | 88 | 1007.1 |
| 20260901062836 | 57 | 146 | 0.0 | 0.0 | 0.00 | 0.00 | 0.00 | 88 | 1007.3 |
| 20260901062342 | 58 | 146 | 0.0 | 0.0 | 0.00 | 0.00 | 0.00 | 88 | 1007.2 |
| 20260901061836 | 58 | 146 | 0.0 | 0.0 | 0.00 | 0.00 | 0.00 | 86 | 1007.2 |
| 20260901061337 | 58 | 146 | 0.0 | 0.0 | 0.00 | 0.00 | 0.00 | 86 | 1007.4 |
| 20260901060836 | 58 | 146 | 0.0 | 0.0 | 0.00 | 0.00 | 0.00 | 85 | 1007.3 |
| 20260901060337 | 58 | 146 | 0.0 | 0.0 | 0.00 | 0.00 | 0.00 | 86 | 1007.4 |
| 20260901060138 | 58 | 146 | 0.0 | 0.0 | 0.00 | 0.00 | 0.00 | 86 | 1007.6 |
| 20260901055337 | 59 | 146 | 0.0 | 0.0 | 0.00 | 0.00 | 0.00 | 86 | 1007.3 |
| 20260901054836 | 58 | 146 | 0.0 | 0.0 | 0.00 | 0.00 | 0.00 | 84 | 1007.4 |
| 20260901054350 | 59 | 146 | 0.0 | 0.0 | 0.00 | 0.00 | 0.00 | 85 | 1007.5 |
| 20260901053836 | 59 | 146 | 0.0 | 0.0 | 0.00 | 0.00 | 0.00 | 85 | 1007.3 |
| 20260901053337 | 59 | 146 | 0.0 | 0.0 | 0.00 | 0.00 | 0.00 | 84 | 1007.5 |
| 20260901052837 | 59 | 147 | 0.0 | 0.0 | 0.00 | 0.00 | 0.00 | 84 | 1007.5 |
| 20260901052337 | 59 | 147 | 0.0 | 0.0 | 0.00 | 0.00 | 0.00 | 85 | 1007.5 |
| 20260901051837 | 59 | 147 | 0.0 | 0.0 | 0.00 | 0.00 | 0.00 | 85 | 1007.6 |
| 20260901051337 | 59 | 147 | 0.0 | 0.0 | 0.00 | 0.00 | 0.00 | 84 | 1007.6 |
| 20260901050836 | 60 | 147 | 0.0 | 0.0 | 0.00 | 0.00 | 0.00 | 85 | 1007.5 |
| 20260901050623 | 60 | 147 | 0.0 | 0.0 | 0.00 | 0.00 | 0.00 | 83 | 1007.7 |
| 20260901050152 | 60 | 147 | 0.0 | 0.0 | 0.00 | 0.00 | 0.00 | 84 | 1007.8 |
| 20260901045337 | 60 | 147 | 0.0 | 0.0 | 0.00 | 0.00 | 0.00 | 84 | 1007.3 |
| 20260901044836 | 60 | 147 | 0.0 | 0.0 | 0.00 | 0.00 | 0.00 | 83 | 1007.7 |
| 20260901044337 | 60 | 147 | 0.0 | 0.0 | 0.00 | 0.00 | 0.00 | 83 | 1007.5 |
| 20260901043839 | 60 | 147 | 0.0 | 0.0 | 0.00 | 0.00 | 0.00 | 84 | 1007.4 |
| 20260901043338 | 60 | 147 | 0.0 | 0.0 | 0.00 | 0.00 | 0.00 | 83 | 1007.7 |
| 20260901042837 | 60 | 147 | 0.0 | 0.0 | 0.00 | 0.00 | 0.00 | 82 | 1007.5 |
| 20260901042337 | 60 | 147 | 0.0 | 0.0 | 0.00 | 0.00 | 0.00 | 82 | 1007.9 |
| 20260901041835 | 60 | 147 | 0.0 | 0.0 | 0.00 | 0.00 | 0.00 | 82 | 1007.8 |
| 20260901041643 | 60 | 147 | 0.0 | 0.0 | 0.00 | 0.00 | 0.00 | 81 | 1007.5 |
| 20260901040835 | 60 | 147 | 0.0 | 0.0 | 0.00 | 0.00 | 0.00 | 81 | 1007.4 |
| 20260901040337 | 61 | 147 | 0.0 | 0.0 | 0.00 | 0.00 | 0.00 | 81 | 1007.3 |
| 20260901035837 | 61 | 147 | 0.0 | 0.0 | 0.00 | 0.00 | 0.00 | 81 | 1007.6 |
| 20260901035336 | 61 | 147 | 0.0 | 0.0 | 0.00 | 0.00 | 0.00 | 81 | 1007.7 |
| 20260901034836 | 61 | 147 | 0.0 | 0.0 | 0.00 | 0.00 | 0.00 | 82 | 1007.5 |
| 20260901034337 | 62 | 147 | 0.0 | 0.0 | 0.00 | 0.00 | 0.00 | 80 | 1007.2 |
| 20260901033837 | 62 | 147 | 0.0 | 0.0 | 0.00 | 0.00 | 0.00 | 79 | 1007.3 |
| 20260901033336 | 62 | 147 | 0.0 | 0.0 | 0.00 | 0.00 | 0.00 | 80 | 1007.3 |
| 20260901033127 | 62 | 147 | 0.0 | 0.0 | 0.00 | 0.00 | 0.00 | 81 | 1007.2 |
| 20260901032639 | 62 | 147 | 0.0 | 0.0 | 0.00 | 0.00 | 0.00 | 79 | 1007.0 |
| 20260901032121 | 62 | 147 | 0.0 | 0.0 | 0.00 | 0.00 | 0.00 | 79 | 1007.1 |
| 20260901031336 | 62 | 147 | 0.0 | 0.0 | 0.00 | 0.00 | 0.00 | 79 | 1007.0 |
| 20260901030836 | 63 | 147 | 0.0 | 0.0 | 0.00 | 0.00 | 0.00 | 80 | 1006.9 |
| 20260901030336 | 63 | 147 | 0.0 | 0.0 | 0.00 | 0.00 | 0.00 | 79 | 1006.9 |
| 20260901025835 | 63 | 146 | 0.0 | 0.0 | 0.00 | 0.00 | 0.00 | 79 | 1006.9 |
| 20260901025338 | 63 | 147 | 0.0 | 0.0 | 0.00 | 0.00 | 0.00 | 79 | 1007.2 |
| 20260901025122 | 64 | 146 | 0.0 | 0.0 | 0.00 | 0.00 | 0.00 | 78 | 1006.7 |
| 20260901024335 | 64 | 146 | 0.0 | 0.0 | 0.00 | 0.00 | 0.00 | 77 | 1007.0 |
| 20260901023835 | 64 | 147 | 0.0 | 0.0 | 0.00 | 0.00 | 0.00 | 79 | 1007.1 |
| 20260901023335 | 64 | 147 | 0.0 | 0.0 | 0.00 | 0.00 | 0.00 | 78 | 1006.9 |
| 20260901022834 | 64 | 146 | 0.0 | 0.0 | 0.00 | 0.00 | 0.00 | 77 | 1007.1 |
| 20260901022339 | 65 | 147 | 0.0 | 0.0 | 0.00 | 0.00 | 0.00 | 77 | 1007.0 |
| 20260901022118 | 65 | 146 | 0.0 | 0.0 | 0.00 | 0.00 | 0.00 | 77 | 1007.1 |
| 20260901021336 | 66 | 146 | 0.0 | 0.0 | 0.00 | 0.00 | 0.00 | 77 | 1006.9 |
| 20260901020839 | 66 | 146 | 0.0 | 0.0 | 0.00 | 0.00 | 0.00 | 77 | 1007.0 |
| 20260901020336 | 66 | 147 | 0.0 | 0.0 | 0.00 | 0.00 | 0.00 | 77 | 1007.0 |
| 20260901015836 | 67 | 147 | 0.0 | 1.0 | 0.00 | 0.00 | 0.00 | 75 | 1007.1 |
| 20260901015338 | 67 | 146 | 0.0 | 1.0 | 0.00 | 0.00 | 0.00 | 72 | 1007.0 |
| 20260901014834 | 67 | 146 | 0.0 | 6.0 | 0.00 | 0.00 | 0.00 | 73 | 1006.8 |
| 20260901014335 | 67 | 147 | 0.0 | 11.0 | 0.00 | 0.00 | 0.00 | 74 | 1007.1 |
| 20260901014122 | 67 | 133 | 1.0 | 21.0 | 0.00 | 0.00 | 0.00 | 71 | 1007.1 |
| 20260901013333 | 67 | 146 | 0.0 | 15.0 | 0.00 | 0.00 | 0.00 | 75 | 1007.1 |
| 20260901012832 | 66 | 128 | 0.0 | 15.0 | 0.00 | 0.00 | 0.00 | 74 | 1007.2 |
| 20260901012337 | 66 | 129 | 0.0 | 0.0 | 0.00 | 0.00 | 0.00 | 75 | 1007.1 |
| 20260901012115 | 67 | 128 | 0.0 | 0.0 | 0.00 | 0.00 | 0.00 | 74 | 1007.0 |
| 20260901011333 | 67 | 129 | 0.0 | 0.0 | 0.00 | 0.00 | 0.00 | 73 | 1007.3 |
| 20260901010835 | 67 | 141 | 0.0 | 0.0 | 0.00 | 0.00 | 0.00 | 74 | 1007.2 |
| 20260901010333 | 67 | 131 | 0.0 | 0.0 | 0.00 | 0.00 | 0.00 | 72 | 1007.1 |
| 20260901010127 | 67 | 131 | 0.0 | 2.0 | 0.00 | 0.00 | 0.00 | 71 | 1007.2 |
| 20260901005337 | 68 | 131 | 0.0 | 6.0 | 0.00 | 0.00 | 0.00 | 69 | 1007.0 |
| 20260901004832 | 67 | 135 | 1.0 | 15.0 | 0.00 | 0.00 | 0.00 | 71 | 1006.9 |
| 20260901004332 | 67 | 128 | 1.0 | 15.0 | 0.00 | 0.00 | 0.00 | 71 | 1007.0 |
| 20260901003835 | 67 | 136 | 0.0 | 4.0 | 0.00 | 0.00 | 0.00 | 72 | 1006.9 |
| 20260901003332 | 67 | 135 | 0.0 | 4.0 | 0.00 | 0.00 | 0.00 | 70 | 1007.1 |
| 20260901002831 | 68 | 154 | 0.0 | 6.0 | 0.00 | 0.00 | 0.00 | 72 | 1007.2 |
| 20260901002337 | 68 | 121 | 0.0 | 15.0 | 0.00 | 0.00 | 0.00 | 70 | 1007.1 |
| 20260901002122 | 69 | 134 | 0.0 | 16.0 | 0.00 | 0.00 | 0.00 | 69 | 1007.1 |
| 20260901001332 | 69 | 132 | 0.0 | 16.0 | 0.00 | 0.00 | 0.00 | 65 | 1007.3 |
| 20260901000835 | 68 | 119 | 0.0 | 9.0 | 0.00 | 0.00 | 0.00 | 64 | 1007.1 |
| 20260901000332 | 69 | 122 | 0.0 | 0.0 | 0.00 | 0.00 | 0.00 | 69 | 1007.2 |
| 20260831235831 | 69 | 124 | 0.0 | 0.0 | 0.00 | 0.00 | 0.00 | 70 | 1007.6 |
| 20260831235336 | 70 | 123 | 0.0 | 4.0 | 0.00 | 0.00 | 0.00 | 64 | 1007.4 |
| 20260831234832 | 70 | 131 | 0.0 | 4.0 | 0.00 | 0.00 | 0.00 | 65 | 1007.7 |
| 20260831234332 | 70 | 105 | 0.0 | 8.0 | 0.00 | 0.00 | 0.00 | 59 | 1007.5 |
| 20260831234151 | 70 | 125 | 0.0 | 8.0 | 0.00 | 0.00 | 0.00 | 63 | 1007.5 |
| 20260831233332 | 69 | 128 | 0.0 | 14.0 | 0.00 | 0.00 | 0.00 | 71 | 1007.8 |
| 20260831232831 | 69 | 128 | 0.0 | 25.0 | 0.00 | 0.00 | 0.00 | 72 | 1007.7 |
| 20260831232335 | 70 | 127 | 0.0 | 25.0 | 0.00 | 0.00 | 0.00 | 64 | 1007.6 |
| 20260831232118 | 69 | 121 | 0.0 | 0.0 | 0.00 | 0.00 | 0.00 | 69 | 1007.8 |
| 20260831231332 | 70 | 121 | 0.0 | 3.0 | 0.00 | 0.00 | 0.00 | 69 | 1007.7 |
| 20260831230835 | 70 | 121 | 0.0 | 7.0 | 0.00 | 0.00 | 0.00 | 63 | 1007.9 |
| 20260831230333 | 70 | 104 | 1.0 | 11.0 | 0.00 | 0.00 | 0.00 | 63 | 1007.8 |
| 20260831225831 | 70 | 128 | 0.0 | 11.0 | 0.00 | 0.00 | 0.00 | 64 | 1007.8 |
| 20260831225337 | 70 | 96 | 0.0 | 8.0 | 0.00 | 0.00 | 0.00 | 64 | 1007.9 |
| 20260831224831 | 70 | 110 | 0.0 | 8.0 | 0.00 | 0.00 | 0.00 | 65 | 1008.2 |
| 20260831224332 | 70 | 83 | 0.0 | 7.0 | 0.00 | 0.00 | 0.00 | 66 | 1008.1 |
| 20260831223836 | 70 | 114 | 0.0 | 7.0 | 0.00 | 0.00 | 0.00 | 71 | 1008.1 |
| 20260831223332 | 70 | 116 | 2.0 | 6.0 | 0.00 | 0.00 | 0.00 | 61 | 1008.2 |
| 20260831222831 | 70 | 132 | 1.0 | 6.0 | 0.00 | 0.00 | 0.00 | 62 | 1008.1 |
| 20260831222642 | 70 | 137 | 0.0 | 4.0 | 0.00 | 0.00 | 0.00 | 61 | 1008.3 |
| 20260831221831 | 70 | 140 | 0.0 | 8.0 | 0.00 | 0.00 | 0.00 | 66 | 1008.3 |
| 20260831221659 | 70 | 108 | 0.0 | 24.0 | 0.00 | 0.00 | 0.00 | 64 | 1008.3 |
| 20260831221653 | 70 | 130 | 0.0 | 3.0 | 0.00 | 0.00 | 0.00 | 67 | 1008.4 |
| 20260831220337 | 70 | 129 | 1.0 | 24.0 | 0.00 | 0.00 | 0.00 | 60 | 1008.4 |
| 20260831215831 | 69 | 121 | 1.0 | 16.0 | 0.00 | 0.00 | 0.00 | 63 | 1008.5 |
| 20260831215334 | 69 | 58 | 0.0 | 7.0 | 0.00 | 0.00 | 0.00 | 69 | 1008.7 |
| 20260831214837 | 70 | 124 | 0.0 | 0.0 | 0.00 | 0.00 | 0.00 | 69 | 1008.6 |
| 20260831214332 | 69 | 143 | 0.0 | 4.0 | 0.00 | 0.00 | 0.00 | 61 | 1008.7 |
| 20260831213832 | 69 | 132 | 0.0 | 7.0 | 0.00 | 0.00 | 0.00 | 72 | 1008.9 |
| 20260831213637 | 69 | 131 | 1.0 | 7.0 | 0.00 | 0.00 | 0.00 | 65 | 1009.0 |
| 20260831212831 | 70 | 102 | 0.0 | 10.0 | 0.00 | 0.00 | 0.00 | 63 | 1009.0 |
| 20260831212332 | 70 | 132 | 0.0 | 10.0 | 0.00 | 0.00 | 0.00 | 64 | 1008.7 |
| 20260831211835 | 70 | 144 | 0.0 | 4.0 | 0.00 | 0.00 | 0.00 | 60 | 1008.8 |
| 20260831211331 | 0 | 0.0 | 0.0 | 0.00 | 0.00 | 0.00 | |||
| 20260831211109 | 0 | 0.0 | 0.0 | 0.00 | 0.00 | 0.00 | |||
| 20260831210622 | 0 | 0.0 | 0.0 | 0.00 | 0.00 | 0.00 | |||
| 20260831205835 | 0 | 0.0 | 0.0 | 0.00 | 0.00 | 0.00 |